0608900071,1995,05,01,00,2.38
0608900071,1995,05,01,01,2.57
0608900071,1995,05,01,02,2.45
0608900071,1995,05,01,03,2.11
0608900071,1995,05,01,04,2
0608900071,1995,05,01,05,1.89
0608900071,1995,05,01,06,1.62
0608900071,1995,05,01,07,1.62
0608900071,1995,05,01,08,1.6
0608900071,1995,05,01,09,3.21
0608900071,1995,05,01,10,2.22
0608900071,1995,05,01,11,2.97
0608900071,1995,05,01,12,3.19
0608900071,1995,05,01,13,3.46
0608900071,1995,05,01,14,3.58
0608900071,1995,05,01,15,3.44
0608900071,1995,05,01,16,3.38
0608900071,1995,05,01,17,3.45
0608900071,1995,05,01,18,3.44
0608900071,1995,05,01,19,3.14
0608900071,1995,05,01,20,3.1
0608900071,1995,05,01,21,3.27
0608900071,1995,05,01,22,1.1
0608900071,1995,05,01,23,0.91
0608900071,1995,05,02,00,0.45
0608900071,1995,05,02,01,0.63
0608900071,1995,05,02,02,0.72
0608900071,1995,05,02,03,1.01
0608900071,1995,05,02,04,1.86
0608900071,1995,05,02,05,1.3
0608900071,1995,05,02,06,1.17
0608900071,1995,05,02,07,1.41
0608900071,1995,05,02,08,1.08
0608900071,1995,05,02,09,1.71
0608900071,1995,05,02,10,2.44
0608900071,1995,05,02,11,2.76
0608900071,1995,05,02,12,3.15
0608900071,1995,05,02,13,3.41
0608900071,1995,05,02,14,3.44
0608900071,1995,05,02,15,3.18
0608900071,1995,05,02,16,3.3
0608900071,1995,05,02,17,3.16
0608900071,1995,05,02,18,2.77
0608900071,1995,05,02,19,1.45
0608900071,1995,05,02,20,0.33
0608900071,1995,05,02,21,0.24
0608900071,1995,05,02,22,0.21
0608900071,1995,05,02,23,0.21
0608900071,1995,05,03,00,0.21
0608900071,1995,05,03,01,0.33
0608900071,1995,05,03,02,0.18
0608900071,1995,05,03,03,0.18
0608900071,1995,05,03,04,0.18
0608900071,1995,05,03,05,0.16
0608900071,1995,05,03,06,0.36
0608900071,1995,05,03,07,0.72
0608900071,1995,05,03,08,1.44
0608900071,1995,05,03,09,1.79
0608900071,1995,05,03,10,2.78
0608900071,1995,05,03,11,3.49
0608900071,1995,05,03,12,3.46
0608900071,1995,05,03,13,3.59
0608900071,1995,05,03,14,3.37
0608900071,1995,05,03,15,3.27
0608900071,1995,05,03,16,3.22
0608900071,1995,05,03,17,2.73
0608900071,1995,05,03,18,2.92
0608900071,1995,05,03,19,2.4
0608900071,1995,05,03,20,1.97
0608900071,1995,05,03,21,2.1
0608900071,1995,05,03,22,0.64
0608900071,1995,05,03,23,0.95
0608900071,1995,05,04,00,1.16
0608900071,1995,05,04,01,1.06
0608900071,1995,05,04,02,0.28
0608900071,1995,05,04,03,0.6
0608900071,1995,05,04,04,0.15
0608900071,1995,05,04,05,0.32
0608900071,1995,05,04,06,0.56
0608900071,1995,05,04,07,0.78
0608900071,1995,05,04,08,2.89
0608900071,1995,05,04,09,2.44
0608900071,1995,05,04,10,2.85
0608900071,1995,05,04,11,3.43
0608900071,1995,05,04,12,3.77
0608900071,1995,05,04,13,3.72
0608900071,1995,05,04,14,3.94
0608900071,1995,05,04,15,2.3
0608900071,1995,05,04,16,2.76
0608900071,1995,05,04,17,2.34
0608900071,1995,05,04,18,2.1
0608900071,1995,05,04,19,1.96
0608900071,1995,05,04,20,2.44
0608900071,1995,05,04,21,1.99
0608900071,1995,05,04,22,2.16
0608900071,1995,05,04,23,1.67
0608900071,1995,05,05,00,1.84
0608900071,1995,05,05,01,2.06
0608900071,1995,05,05,02,2.08
0608900071,1995,05,05,03,2.47
0608900071,1995,05,05,04,2.46
0608900071,1995,05,05,05,2.55
0608900071,1995,05,05,06,1.43
0608900071,1995,05,05,07,2.09
0608900071,1995,05,05,08,2.76
0608900071,1995,05,05,09,2.84
0608900071,1995,05,05,10,2.91
0608900071,1995,05,05,11,2.91
0608900071,1995,05,05,12,3.14
0608900071,1995,05,05,13,3.69
0608900071,1995,05,05,14,3.32
0608900071,1995,05,05,15,3.55
0608900071,1995,05,05,16,3.3
0608900071,1995,05,05,17,3.18
0608900071,1995,05,05,18,2.6
0608900071,1995,05,05,19,2.26
0608900071,1995,05,05,20,2.67
0608900071,1995,05,05,21,2.92
0608900071,1995,05,05,22,2.55
0608900071,1995,05,05,23,2.04
0608900071,1995,05,06,00,0.5
0608900071,1995,05,06,01,0.61
0608900071,1995,05,06,02,0.46
0608900071,1995,05,06,03,0.35
0608900071,1995,05,06,04,0.41
0608900071,1995,05,06,05,0.3
0608900071,1995,05,06,06,0.91
0608900071,1995,05,06,07,1.41
0608900071,1995,05,06,08,2.55
0608900071,1995,05,06,09,2.53
0608900071,1995,05,06,10,3.04
0608900071,1995,05,06,11,3.67
0608900071,1995,05,06,12,4.01
0608900071,1995,05,06,13,3.92
0608900071,1995,05,06,14,3.5
0608900071,1995,05,06,15,3.78
0608900071,1995,05,06,16,3.11
0608900071,1995,05,06,17,3.23
0608900071,1995,05,06,18,2.34
0608900071,1995,05,06,19,1.72
0608900071,1995,05,06,20,1.73
0608900071,1995,05,06,21,2.28
0608900071,1995,05,06,22,1.95
0608900071,1995,05,06,23,1.4
0608900071,1995,05,07,00,0.58
0608900071,1995,05,07,01,0.39
0608900071,1995,05,07,02,0.77
0608900071,1995,05,07,03,0.33
0608900071,1995,05,07,04,0.29
0608900071,1995,05,07,05,0.31
0608900071,1995,05,07,06,0.83
0608900071,1995,05,07,07,1.13
0608900071,1995,05,07,08,2.05
0608900071,1995,05,07,09,2.75
0608900071,1995,05,07,10,2.93
0608900071,1995,05,07,11,2.99
0608900071,1995,05,07,12,3.32
0608900071,1995,05,07,13,3.57
0608900071,1995,05,07,14,4.1
0608900071,1995,05,07,15,4.01
0608900071,1995,05,07,16,4.03
0608900071,1995,05,07,17,4.32
0608900071,1995,05,07,18,3.64
0608900071,1995,05,07,19,3.39
0608900071,1995,05,07,20,2.66
0608900071,1995,05,07,21,3.2
0608900071,1995,05,07,22,3.45
0608900071,1995,05,07,23,3.1
0608900071,1995,05,08,00,2.67
0608900071,1995,05,08,01,2.27
0608900071,1995,05,08,02,2.17
0608900071,1995,05,08,03,1.72
0608900071,1995,05,08,04,1.64
0608900071,1995,05,08,05,1.71
0608900071,1995,05,08,06,1.59
0608900071,1995,05,08,07,2.26
0608900071,1995,05,08,08,2.37
0608900071,1995,05,08,09,2.58
0608900071,1995,05,08,10,2.68
0608900071,1995,05,08,11,2.68
0608900071,1995,05,08,12,3.13
0608900071,1995,05,08,13,3.39
0608900071,1995,05,08,14,3.83
0608900071,1995,05,08,15,4.02
0608900071,1995,05,08,16,3.9
0608900071,1995,05,08,17,4.08
0608900071,1995,05,08,18,3.58
0608900071,1995,05,08,19,2.69
0608900071,1995,05,08,20,0.42
0608900071,1995,05,08,21,0.52
0608900071,1995,05,08,22,0.53
0608900071,1995,05,08,23,0.9
0608900071,1995,05,09,00,0.76
0608900071,1995,05,09,01,0.47
0608900071,1995,05,09,02,0.36
0608900071,1995,05,09,03,0.69
0608900071,1995,05,09,04,1.23
0608900071,1995,05,09,05,0.99
0608900071,1995,05,09,06,0.62
0608900071,1995,05,09,07,1.28
0608900071,1995,05,09,08,1.3
0608900071,1995,05,09,09,1.73
0608900071,1995,05,09,10,2.01
0608900071,1995,05,09,11,2.89
0608900071,1995,05,09,12,3.41
0608900071,1995,05,09,13,3.42
0608900071,1995,05,09,14,3.62
0608900071,1995,05,09,15,3.5
0608900071,1995,05,09,16,3.6
0608900071,1995,05,09,17,3.34
0608900071,1995,05,09,18,2.33
0608900071,1995,05,09,19,2.17
0608900071,1995,05,09,20,1.59
0608900071,1995,05,09,21,1.51
0608900071,1995,05,09,22,1.36
0608900071,1995,05,09,23,1.17
0608900071,1995,05,10,00,1.49
0608900071,1995,05,10,01,0.7
0608900071,1995,05,10,02,0.45
0608900071,1995,05,10,03,0.58
0608900071,1995,05,10,04,0.35
0608900071,1995,05,10,05,0.25
0608900071,1995,05,10,06,0.45
0608900071,1995,05,10,07,0.73
0608900071,1995,05,10,09,2.73
0608900071,1995,05,10,10,3.37
0608900071,1995,05,10,11,4.13
0608900071,1995,05,10,12,4.04
0608900071,1995,05,10,13,4.05
0608900071,1995,05,10,14,3.97
0608900071,1995,05,10,15,4.06
0608900071,1995,05,10,16,4.03
0608900071,1995,05,10,17,4.03
0608900071,1995,05,10,18,3.37
0608900071,1995,05,10,19,2.75
0608900071,1995,05,10,20,3.79
0608900071,1995,05,10,21,2.79
0608900071,1995,05,10,22,1.5
0608900071,1995,05,10,23,0.72
0608900071,1995,05,11,00,1.78
0608900071,1995,05,11,01,1.45
0608900071,1995,05,11,02,0.99
0608900071,1995,05,11,03,0.93
0608900071,1995,05,11,04,0.45
0608900071,1995,05,11,05,0.59
0608900071,1995,05,11,06,1.15
0608900071,1995,05,11,07,1.44
0608900071,1995,05,11,08,2.06
0608900071,1995,05,11,09,2.16
0608900071,1995,05,11,10,3.11
0608900071,1995,05,11,11,3.71
0608900071,1995,05,11,12,2.92
0608900071,1995,05,11,13,2.96
0608900071,1995,05,11,14,3.64
0608900071,1995,05,11,15,4.24
0608900071,1995,05,11,16,4.74
0608900071,1995,05,11,17,4.81
0608900071,1995,05,11,18,4.61
0608900071,1995,05,11,19,4.12
0608900071,1995,05,11,20,2.97
0608900071,1995,05,11,21,1.77
0608900071,1995,05,11,22,2.95
0608900071,1995,05,11,23,3.68
0608900071,1995,05,12,00,3.57
0608900071,1995,05,12,01,3.06
0608900071,1995,05,12,02,1.71
0608900071,1995,05,12,03,0.89
0608900071,1995,05,12,04,0.23
0608900071,1995,05,12,05,0.26
0608900071,1995,05,12,06,0.41
0608900071,1995,05,12,07,1.55
0608900071,1995,05,12,08,3.07
0608900071,1995,05,12,09,3.43
0608900071,1995,05,12,10,3.47
0608900071,1995,05,12,11,3.25
0608900071,1995,05,12,12,3.67
0608900071,1995,05,12,13,3.46
0608900071,1995,05,12,14,3.13
0608900071,1995,05,12,15,2.7
0608900071,1995,05,12,16,2.2
0608900071,1995,05,12,17,2.6
0608900071,1995,05,12,18,2.93
0608900071,1995,05,12,19,2.34
0608900071,1995,05,12,20,2
0608900071,1995,05,12,21,2.24
0608900071,1995,05,12,22,2
0608900071,1995,05,12,23,2.23
0608900071,1995,05,13,00,2.26
0608900071,1995,05,13,01,1.93
0608900071,1995,05,13,02,2.28
0608900071,1995,05,13,03,1.95
0608900071,1995,05,13,04,0.78
0608900071,1995,05,13,05,0.6
0608900071,1995,05,13,06,0.88
0608900071,1995,05,13,07,0.97
0608900071,1995,05,13,08,1.47
0608900071,1995,05,13,09,2.1
0608900071,1995,05,13,10,2.17
0608900071,1995,05,13,11,2.48
0608900071,1995,05,13,12,2.71
0608900071,1995,05,13,13,3.14
0608900071,1995,05,13,14,3.41
0608900071,1995,05,13,15,3.69
0608900071,1995,05,13,16,3.25
0608900071,1995,05,13,17,3.52
0608900071,1995,05,13,18,3.48
0608900071,1995,05,13,19,2.7
0608900071,1995,05,13,20,2.33
0608900071,1995,05,13,21,0.57
0608900071,1995,05,13,22,0.95
0608900071,1995,05,13,23,0.73
0608900071,1995,05,14,00,0.51
0608900071,1995,05,14,01,0.76
0608900071,1995,05,14,02,0.18
0608900071,1995,05,14,03,0.19
0608900071,1995,05,14,04,0.26
0608900071,1995,05,14,05,0.29
0608900071,1995,05,14,06,0.59
0608900071,1995,05,14,07,1.28
0608900071,1995,05,14,08,2.43
0608900071,1995,05,14,09,3
0608900071,1995,05,14,10,3.25
0608900071,1995,05,14,11,3.71
0608900071,1995,05,14,12,3.9
0608900071,1995,05,14,13,4.04
0608900071,1995,05,14,14,4.01
0608900071,1995,05,14,15,3.94
0608900071,1995,05,14,16,3.69
0608900071,1995,05,14,17,3.48
0608900071,1995,05,14,18,3.28
0608900071,1995,05,14,19,3.15
0608900071,1995,05,14,20,2.74
0608900071,1995,05,14,21,2.23
0608900071,1995,05,14,22,2.28
0608900071,1995,05,14,23,1.6
0608900071,1995,05,15,00,1.6
0608900071,1995,05,15,01,1.16
0608900071,1995,05,15,02,0.89
0608900071,1995,05,15,03,0.56
0608900071,1995,05,15,04,0.96
0608900071,1995,05,15,05,0.57
0608900071,1995,05,15,06,0.6
0608900071,1995,05,15,07,0.9
0608900071,1995,05,15,08,1.68
0608900071,1995,05,15,09,1.93
0608900071,1995,05,15,10,1.55
0608900071,1995,05,15,11,2.32
0608900071,1995,05,15,12,2.73
0608900071,1995,05,15,13,2.48
0608900071,1995,05,15,14,2.65
0608900071,1995,05,15,15,2.7
0608900071,1995,05,15,16,2.82
0608900071,1995,05,15,17,1.45
0608900071,1995,05,15,18,0.75
0608900071,1995,05,15,19,0.52
0608900071,1995,05,15,20,1.29
0608900071,1995,05,15,21,0.99
0608900071,1995,05,15,22,0.7
0608900071,1995,05,15,23,1.18
0608900071,1995,05,16,00,1.44
0608900071,1995,05,16,01,1.64
0608900071,1995,05,16,02,1.38
0608900071,1995,05,16,03,0.56
0608900071,1995,05,16,04,0.33
0608900071,1995,05,16,05,0.28
0608900071,1995,05,16,06,0.7
0608900071,1995,05,16,07,1.19
0608900071,1995,05,16,08,1.66
0608900071,1995,05,16,09,1.89
0608900071,1995,05,16,10,2.38
0608900071,1995,05,16,11,3.17
0608900071,1995,05,16,12,3.81
0608900071,1995,05,16,13,6.15
0608900071,1995,05,16,14,4.67
0608900071,1995,05,16,15,4.53
0608900071,1995,05,16,16,4.08
0608900071,1995,05,16,17,4.17
0608900071,1995,05,16,18,3.77
0608900071,1995,05,16,19,2.49
0608900071,1995,05,16,20,1.39
0608900071,1995,05,16,21,0.29
0608900071,1995,05,16,22,0.28
0608900071,1995,05,16,23,0.43
0608900071,1995,05,17,00,0.84
0608900071,1995,05,17,01,0.35
0608900071,1995,05,17,02,0.23
0608900071,1995,05,17,03,0.4
0608900071,1995,05,17,04,0.35
0608900071,1995,05,17,05,0.33
0608900071,1995,05,17,06,0.43
0608900071,1995,05,17,07,2
0608900071,1995,05,17,08,2.76
0608900071,1995,05,17,09,3.43
0608900071,1995,05,17,10,3.95
0608900071,1995,05,17,11,4.71
0608900071,1995,05,17,12,4.67
0608900071,1995,05,17,13,4.53
0608900071,1995,05,17,14,4.77
0608900071,1995,05,17,15,4.99
0608900071,1995,05,17,16,4.52
0608900071,1995,05,17,17,4.06
0608900071,1995,05,17,18,3.86
0608900071,1995,05,17,19,3.12
0608900071,1995,05,17,20,1.96
0608900071,1995,05,17,21,1.27
0608900071,1995,05,17,22,0.56
0608900071,1995,05,17,23,0.44
0608900071,1995,05,18,00,0.31
0608900071,1995,05,18,01,0.28
0608900071,1995,05,18,02,0.21
0608900071,1995,05,18,03,0.25
0608900071,1995,05,18,04,0.23
0608900071,1995,05,18,05,0.33
0608900071,1995,05,18,06,0.71
0608900071,1995,05,18,07,1.99
0608900071,1995,05,18,08,2.99
0608900071,1995,05,18,09,3.67
0608900071,1995,05,18,10,4.41
0608900071,1995,05,18,11,4.84
0608900071,1995,05,18,12,4.91
0608900071,1995,05,18,13,5.25
0608900071,1995,05,18,14,4.98
0608900071,1995,05,18,15,5.28
0608900071,1995,05,18,16,4.92
0608900071,1995,05,18,17,4.89
0608900071,1995,05,18,18,4.2
0608900071,1995,05,18,19,3.14
0608900071,1995,05,18,20,1.94
0608900071,1995,05,18,21,0.9
0608900071,1995,05,18,22,0.77
0608900071,1995,05,18,23,1.22
0608900071,1995,05,19,00,0.63
0608900071,1995,05,19,01,0.53
0608900071,1995,05,19,02,0.66
0608900071,1995,05,19,03,0.26
0608900071,1995,05,19,04,0.29
0608900071,1995,05,19,05,0.3
0608900071,1995,05,19,06,0.5
0608900071,1995,05,19,07,1.28
0608900071,1995,05,19,08,2.43
0608900071,1995,05,19,09,3.11
0608900071,1995,05,19,10,4.77
0608900071,1995,05,19,11,5.72
0608900071,1995,05,19,12,5.58
0608900071,1995,05,19,13,5.63
0608900071,1995,05,19,14,6.03
0608900071,1995,05,19,15,6.24
0608900071,1995,05,19,16,6.28
0608900071,1995,05,19,17,6.34
0608900071,1995,05,19,18,4.61
0608900071,1995,05,19,19,3.89
0608900071,1995,05,19,20,2.05
0608900071,1995,05,19,21,0.62
0608900071,1995,05,19,22,1.23
0608900071,1995,05,19,23,0.71
0608900071,1995,05,20,00,1.02
0608900071,1995,05,20,01,0.73
0608900071,1995,05,20,02,0.82
0608900071,1995,05,20,03,0.76
0608900071,1995,05,20,04,0.46
0608900071,1995,05,20,05,0.46
0608900071,1995,05,20,06,1
0608900071,1995,05,20,07,1.69
0608900071,1995,05,20,08,3.26
0608900071,1995,05,20,09,4.22
0608900071,1995,05,20,10,5.77
0608900071,1995,05,20,11,7.27
0608900071,1995,05,20,12,7.38
0608900071,1995,05,20,13,7.53
0608900071,1995,05,20,14,7
0608900071,1995,05,20,15,6.84
0608900071,1995,05,20,16,7.37
0608900071,1995,05,20,17,7.15
0608900071,1995,05,20,18,6.28
0608900071,1995,05,20,19,4.86
0608900071,1995,05,20,20,3.28
0608900071,1995,05,20,21,1.73
0608900071,1995,05,20,22,1.25
0608900071,1995,05,20,23,1.16
0608900071,1995,05,21,00,2.33
0608900071,1995,05,21,01,2.77
0608900071,1995,05,21,02,2.81
0608900071,1995,05,21,03,2.78
0608900071,1995,05,21,04,2.76
0608900071,1995,05,21,05,1.66
0608900071,1995,05,21,06,2.59
0608900071,1995,05,21,07,2.97
0608900071,1995,05,21,08,2.83
0608900071,1995,05,21,09,3.5
0608900071,1995,05,21,10,3.79
0608900071,1995,05,21,11,4.64
0608900071,1995,05,21,12,5.15
0608900071,1995,05,21,13,5.68
0608900071,1995,05,21,14,5.6
0608900071,1995,05,21,15,5.36
0608900071,1995,05,21,16,4.97
0608900071,1995,05,21,17,5.06
0608900071,1995,05,21,18,4.71
0608900071,1995,05,21,19,3.77
0608900071,1995,05,21,20,2.78
0608900071,1995,05,21,21,3.31
0608900071,1995,05,21,22,3.87
0608900071,1995,05,21,23,3.42
0608900071,1995,05,22,00,2.62
0608900071,1995,05,22,01,2.17
0608900071,1995,05,22,02,2.12
0608900071,1995,05,22,03,1.77
0608900071,1995,05,22,04,1.47
0608900071,1995,05,22,05,1.73
0608900071,1995,05,22,06,2.21
0608900071,1995,05,22,07,2.12
0608900071,1995,05,22,08,2.59
0608900071,1995,05,22,09,2.86
0608900071,1995,05,22,10,3.17
0608900071,1995,05,22,11,3.56
0608900071,1995,05,22,12,4.05
0608900071,1995,05,22,13,4.37
0608900071,1995,05,22,14,4.56
0608900071,1995,05,22,15,4.57
0608900071,1995,05,22,16,4.85
0608900071,1995,05,22,17,5.23
0608900071,1995,05,22,18,5.3
0608900071,1995,05,22,19,4.7
0608900071,1995,05,22,20,3.6
0608900071,1995,05,22,21,2.75
0608900071,1995,05,22,22,1.89
0608900071,1995,05,22,23,1.42
0608900071,1995,05,23,00,1.06
0608900071,1995,05,23,01,1.04
0608900071,1995,05,23,02,0.37
0608900071,1995,05,23,03,0.33
0608900071,1995,05,23,04,0.26
0608900071,1995,05,23,05,0.3
0608900071,1995,05,23,06,0.5
0608900071,1995,05,23,07,1.11
0608900071,1995,05,23,08,2.35
0608900071,1995,05,23,09,4.56
0608900071,1995,05,23,10,4.38
0608900071,1995,05,23,11,4.72
0608900071,1995,05,23,12,4.68
0608900071,1995,05,23,13,4.66
0608900071,1995,05,23,14,4.69
0608900071,1995,05,23,15,4.55
0608900071,1995,05,23,16,4.24
0608900071,1995,05,23,17,3.95
0608900071,1995,05,23,18,3.15
0608900071,1995,05,23,19,3.26
0608900071,1995,05,23,20,3.19
0608900071,1995,05,23,21,3.59
0608900071,1995,05,23,22,3.08
0608900071,1995,05,23,23,2.18
0608900071,1995,05,24,00,2.85
0608900071,1995,05,24,01,1.22
0608900071,1995,05,24,02,1.94
0608900071,1995,05,24,03,1.39
0608900071,1995,05,24,04,1.65
0608900071,1995,05,24,05,0.64
0608900071,1995,05,24,06,1.19
0608900071,1995,05,24,07,1.7
0608900071,1995,05,24,08,3.59
0608900071,1995,05,24,09,3.81
0608900071,1995,05,24,10,3.82
0608900071,1995,05,24,11,3.98
0608900071,1995,05,24,12,4.19
0608900071,1995,05,24,13,4.39
0608900071,1995,05,24,14,4.84
0608900071,1995,05,24,15,4.06
0608900071,1995,05,24,16,3.09
0608900071,1995,05,24,17,2.34
0608900071,1995,05,24,18,1.88
0608900071,1995,05,24,19,0.81
0608900071,1995,05,24,20,1.53
0608900071,1995,05,24,21,0.25
0608900071,1995,05,24,22,0.66
0608900071,1995,05,24,23,0.64
0608900071,1995,05,25,00,1.17
0608900071,1995,05,25,01,0.65
0608900071,1995,05,25,02,0.32
0608900071,1995,05,25,03,0.35
0608900071,1995,05,25,04,0.46
0608900071,1995,05,25,05,0.32
0608900071,1995,05,25,06,0.45
0608900071,1995,05,25,07,0.75
0608900071,1995,05,25,08,2.13
0608900071,1995,05,25,09,3.41
0608900071,1995,05,25,10,3.82
0608900071,1995,05,25,11,4.02
0608900071,1995,05,25,12,4.05
0608900071,1995,05,25,13,4.14
0608900071,1995,05,25,14,4.53
0608900071,1995,05,25,15,4.83
0608900071,1995,05,25,16,5.15
0608900071,1995,05,25,17,5.01
0608900071,1995,05,25,18,4.23
0608900071,1995,05,25,19,2.48
0608900071,1995,05,25,20,2.77
0608900071,1995,05,25,21,1.33
0608900071,1995,05,25,22,1.88
0608900071,1995,05,25,23,1.32
0608900071,1995,05,26,00,0.34
0608900071,1995,05,26,01,0.54
0608900071,1995,05,26,02,0.41
0608900071,1995,05,26,03,0.52
0608900071,1995,05,26,04,0.43
0608900071,1995,05,26,05,0.43
0608900071,1995,05,26,06,0.73
0608900071,1995,05,26,07,1.89
0608900071,1995,05,26,08,3.38
0608900071,1995,05,26,09,4.7
0608900071,1995,05,26,10,4.79
0608900071,1995,05,26,11,5.68
0608900071,1995,05,26,12,6.12
0608900071,1995,05,26,13,6.01
0608900071,1995,05,26,14,5.95
0608900071,1995,05,26,15,6.45
0608900071,1995,05,26,16,6.25
0608900071,1995,05,26,17,5.87
0608900071,1995,05,26,18,4.94
0608900071,1995,05,26,19,4.66
0608900071,1995,05,26,20,3.45
0608900071,1995,05,26,21,1.96
0608900071,1995,05,26,22,2.1
0608900071,1995,05,26,23,1.57
0608900071,1995,05,27,00,1.51
0608900071,1995,05,27,01,0.64
0608900071,1995,05,27,02,1.06
0608900071,1995,05,27,03,1.45
0608900071,1995,05,27,04,0.97
0608900071,1995,05,27,05,0.97
0608900071,1995,05,27,06,2.03
0608900071,1995,05,27,07,2.15
0608900071,1995,05,27,08,3.18
0608900071,1995,05,27,09,4.96
0608900071,1995,05,27,10,6.25
0608900071,1995,05,27,11,6.68
0608900071,1995,05,27,12,6.56
0608900071,1995,05,27,13,6.21
0608900071,1995,05,27,14,6.05
0608900071,1995,05,27,15,5.93
0608900071,1995,05,27,16,5.63
0608900071,1995,05,27,17,5.56
0608900071,1995,05,27,18,5.31
0608900071,1995,05,27,19,3.8
0608900071,1995,05,27,20,2.89
0608900071,1995,05,27,21,1.29
0608900071,1995,05,27,22,0.63
0608900071,1995,05,27,23,1.77
0608900071,1995,05,28,00,1.35
0608900071,1995,05,28,01,1.09
0608900071,1995,05,28,02,0.65
0608900071,1995,05,28,03,1.21
0608900071,1995,05,28,04,0.91
0608900071,1995,05,28,05,0.98
0608900071,1995,05,28,06,0.93
0608900071,1995,05,28,07,1.82
0608900071,1995,05,28,08,3.48
0608900071,1995,05,28,09,4.3
0608900071,1995,05,28,10,4.72
0608900071,1995,05,28,11,5.01
0608900071,1995,05,28,12,5.02
0608900071,1995,05,28,13,4.88
0608900071,1995,05,28,14,5.13
0608900071,1995,05,28,15,5.18
0608900071,1995,05,28,16,5.17
0608900071,1995,05,28,17,4.94
0608900071,1995,05,28,18,4.37
0608900071,1995,05,28,19,2.81
0608900071,1995,05,28,20,1.4
0608900071,1995,05,28,21,1.42
0608900071,1995,05,28,22,1.27
0608900071,1995,05,28,23,0.71
0608900071,1995,05,29,00,0.54
0608900071,1995,05,29,01,0.54
0608900071,1995,05,29,02,0.59
0608900071,1995,05,29,03,0.51
0608900071,1995,05,29,04,0.28
0608900071,1995,05,29,05,0.46
0608900071,1995,05,29,06,0.94
0608900071,1995,05,29,07,1.79
0608900071,1995,05,29,08,3.3
0608900071,1995,05,29,09,4.36
0608900071,1995,05,29,10,4.25
0608900071,1995,05,29,11,4.82
0608900071,1995,05,29,12,5.79
0608900071,1995,05,29,13,6.08
0608900071,1995,05,29,14,6.5
0608900071,1995,05,29,15,6.73
0608900071,1995,05,29,16,5.59
0608900071,1995,05,29,17,5.15
0608900071,1995,05,29,18,4.29
0608900071,1995,05,29,19,4.72
0608900071,1995,05,29,20,4.44
0608900071,1995,05,29,21,4.36
0608900071,1995,05,29,22,4.37
0608900071,1995,05,29,23,1.61
0608900071,1995,05,30,00,1.71
0608900071,1995,05,30,01,1
0608900071,1995,05,30,02,0.88
0608900071,1995,05,30,03,0.66
0608900071,1995,05,30,04,0.46
0608900071,1995,05,30,05,0.67
0608900071,1995,05,30,06,0.65
0608900071,1995,05,30,07,1.15
0608900071,1995,05,30,08,3.93
0608900071,1995,05,30,09,4.45
0608900071,1995,05,30,10,5.56
0608900071,1995,05,30,11,6.71
0608900071,1995,05,30,12,7.14
0608900071,1995,05,30,13,7.02
0608900071,1995,05,30,14,7.07
0608900071,1995,05,30,15,6.5
0608900071,1995,05,30,16,5.94
0608900071,1995,05,30,17,4.68
0608900071,1995,05,30,18,3.84
0608900071,1995,05,30,19,3.82
0608900071,1995,05,30,20,2.27
0608900071,1995,05,30,21,0.85
0608900071,1995,05,30,22,0.68
0608900071,1995,05,30,23,0.8
0608900071,1995,05,31,00,0.93
0608900071,1995,05,31,01,1.29
0608900071,1995,05,31,02,1.28
0608900071,1995,05,31,03,0.89
0608900071,1995,05,31,04,0.75
0608900071,1995,05,31,05,0.57
0608900071,1995,05,31,06,0.5
0608900071,1995,05,31,07,1.03
0608900071,1995,05,31,08,2.07
0608900071,1995,05,31,09,4.13
0608900071,1995,05,31,10,6.22
0608900071,1995,05,31,11,7.39
0608900071,1995,05,31,12,6.71
0608900071,1995,05,31,13,6.99
0608900071,1995,05,31,14,5.41
0608900071,1995,05,31,15,5.65
0608900071,1995,05,31,16,5.38
0608900071,1995,05,31,17,5.13
0608900071,1995,05,31,18,4.41
0608900071,1995,05,31,19,2.59
0608900071,1995,05,31,20,0.68
0608900071,1995,05,31,21,0.34
0608900071,1995,05,31,22,1.12
0608900071,1995,05,31,23,1
0608900071,1995,06,01,00,0.74
0608900071,1995,06,01,01,0.43
0608900071,1995,06,01,02,0.33
0608900071,1995,06,01,03,0.53
0608900071,1995,06,01,04,0.59
0608900071,1995,06,01,05,0.63
0608900071,1995,06,01,06,0.91
0608900071,1995,06,01,07,2.17
0608900071,1995,06,01,08,2.95
0608900071,1995,06,01,09,3.87
0608900071,1995,06,01,10,4.18
0608900071,1995,06,01,11,5.06
0608900071,1995,06,01,12,6.61
0608900071,1995,06,01,13,7.66
0608900071,1995,06,01,14,7.24
0608900071,1995,06,01,15,5.92
0608900071,1995,06,01,16,5.05
0608900071,1995,06,01,17,4.98
0608900071,1995,06,01,18,3.77
0608900071,1995,06,01,19,3.19
0608900071,1995,06,01,20,1.97
0608900071,1995,06,01,21,3.67
0608900071,1995,06,01,22,3.83
0608900071,1995,06,01,23,3.49
0608900071,1995,06,02,00,2.9
0608900071,1995,06,02,01,2.68
0608900071,1995,06,02,02,1.89
0608900071,1995,06,02,03,2.01
0608900071,1995,06,02,04,2.4
0608900071,1995,06,02,05,2.49
0608900071,1995,06,02,06,2.18
0608900071,1995,06,02,07,2.25
0608900071,1995,06,02,08,2.51
0608900071,1995,06,02,09,2.79